This demonstration page uses our WeatherBlox Daily Observations layout. Learn more.

Left ArrowRight Arrow

Hourly Observations for December 2, 2021

Temp ( °F °C ) Dew Point ( °F °C ) Humidity (%) Winds ( mph kmh ) Pressure ( in mb ) Visibility ( mi km ) Precip ( " mm )
12:56 am 00:56 Clear 50 10 31 -0.6 48 48 WSW 9 15 29.93 1013 10 16 0.00 0.00
1:56 am 01:56 Clear 48 8.9 31 -0.6 52 52 W 7 11 29.94 1014 10 16 0.00 0.00
2:56 am 02:56 Clear 50 10 31 -0.6 48 48 WSW 8 13 29.95 1014 10 16 0.00 0.00
3:56 am 03:56 Clear 50 10 32 0 50 50 W 9 15 29.95 1014 10 16 0.00 0.00
4:56 am 04:56 Clear 50 10 32 0 50 50 W 8 13 29.95 1014 10 16 0.00 0.00
5:56 am 05:56 Clear 48 8.9 32 0 54 54 WNW 8 13 29.97 1015 10 16 0.00 0.00
6:56 am 06:56 Clear 43 6.1 31 -0.6 63 63 SW 6 9 29.98 1015 10 16 0.00 0.00
7:56 am 07:56 Sunny 44 6.7 32 0 63 63 WSW 7 11 30.00 1016 10 16 0.00 0.00
8:56 am 08:56 Sunny 50 10 33 0.6 52 52 NNW 7 11 30.03 1017 10 16 0.00 0.00
9:56 am 09:56 Sunny 56 13.3 34 1.1 44 44 WNW 7 11 30.03 1017 10 16 0.00 0.00
10:56 am 10:56 Sunny 62 16.7 35 1.7 37 37 NW 5 7 30.01 1016 10 16 0.00 0.00
11:56 am 11:56 Sunny 67 19.4 36 2.2 32 32 Calm 29.98 1015 10 16 0.00 0.00
12:56 pm 12:56 Sunny 69 20.6 35 1.7 29 29 S 7 11 29.93 1014 10 16 0.00 0.00
1:56 pm 13:56 Sunny 71 21.7 35 1.7 27 27 SW 8 13 29.91 1013 10 16 0.00 0.00
2:56 pm 14:56 Sunny 72 22.2 37 2.8 28 28 WSW 6 9 29.89 1012 10 16 0.00 0.00
3:56 pm 15:56 Sunny 70 21.1 36 2.2 29 29 SSW 8 13 29.88 1012 10 16 0.00 0.00
4:56 pm 16:56 Sunny 66 18.9 36 2.2 33 33 S 6 9 29.88 1012 10 16 0.00 0.00
5:56 pm 17:56 Clear 59 15 34 1.1 39 39 S 9 15 29.87 1012 10 16 0.00 0.00
6:56 pm 18:56 Clear 55 12.8 33 0.6 44 44 S 5 7 29.89 1012 10 16 0.00 0.00
7:56 pm 19:56 Clear 55 12.8 33 0.6 44 44 SSW 8 13 29.89 1012 10 16 0.00 0.00
8:56 pm 20:56 Clear 52 11.1 34 1.1 50 50 SSW 9 15 29.88 1012 10 16 0.00 0.00
9:56 pm 21:56 Clear 53 11.7 34 1.1 48 48 WSW 3 6 29.86 1011 10 16 0.00 0.00
10:56 pm 22:56 Clear 50 10 33 0.6 52 52 SSW 6 9 29.87 1012 10 16 0.00 0.00
11:56 pm 23:56 Clear 45 7.2 32 0 61 61 WSW 5 7 29.86 1011 10 16 0.00 0.00

Powered by AerisWeather